Tracking 31027 objects as of 19-Jul-2025
HD Live streaming from Space Station
objects crossing your sky now

ONEWEB-0126

Track ONEWEB-0126 now!
10-day predictions
ONEWEB-0126 is classified as:


NORAD ID: 47272
Int'l Code: 2020-100Q
Perigee: 1,219.5 km
Apogee: 1,222.2 km
Inclination: 87.9 °
Period: 109.7 minutes
Semi major axis: 7591 km
RCS: Unknown
Launch date: December 18, 2020
Source: United Kingdom (UK)
Launch site: VOSTOCHNY COSMODROME (VOSTO)
Your satellite tracking list
STARLINK-1578
Track 1 satellite(s)




NASA's NSSDC Master Catalog

Two Line Element Set (TLE):
1 47272U 20100Q   25199.88605318  .00000220  00000-0  57709-3 0  9995
2 47272  87.8877  56.9331 0001749  79.9581 280.1745 13.12443854220989
Source of the keplerian elements: AFSPC